COSMOS 2361 1 25590U 98076A 09006.20477360 .00000034 00000-0 19908-4 0 9263 2 25590 082.9309 234.7186 0031370 171.4722 188.6973 13.72696708502809 COSMOS 2378 1 26818U 01023A 09006.44471816 .00000050 00000-0 37016-4 0 9223 2 26818 082.9264 261.7523 0033691 138.7288 221.6423 13.73730943380127 COSMOS 2389 1 27436U 02026A 09006.39388578 .00000007 00000-0 -91035-5 0 6457 2 27436 082.9473 202.2671 0047623 033.7930 326.6255 13.74728237331745 COSMOS 2398 1 27818U 03023A 09005.95881074 .00000012 00000-0 -30416-5 0 5113 2 27818 082.9478 148.3096 0031774 007.1664 352.9944 13.71950525280007 COSMOS 2407 1 28380U 04028A 09005.97639808 .00000031 00000-0 15328-4 0 3260 2 28380 082.9600 110.8726 0040781 065.3210 295.2183 13.75838557223885 COSMOS 2414 1 28521U 05002A 09006.18570795 .00000098 00000-0 68906-4 0 2333 2 28521 082.9476 179.5157 0041533 125.5808 234.9238 13.87341519200630